Marathon, Florida Weather Center

Moon Phase Calendar



Online Cameras

 


      

Current Conditions in Marathon
11/26/2020 6:44:30 PM

77°F
Feels Like 78
Clear
Humidity
69%
Pressure
30.03"
Wind
8 mph (ENE)
Dew Point
66°F
UV Index
6/10 (High)
Visibility
6 mi

Hourly Forecast

Date & Time Thu, Nov 26
6:00 PM
Thu, Nov 26
7:00 PM
Thu, Nov 26
8:00 PM
Thu, Nov 26
9:00 PM
Thu, Nov 26
10:00 PM
Thu, Nov 26
11:00 PM
Fri, Nov 27
12:00 AM
Fri, Nov 27
1:00 AM
Fri, Nov 27
2:00 AM
Fri, Nov 27
3:00 AM
Fri, Nov 27
4:00 AM
Fri, Nov 27
5:00 AM
Fri, Nov 27
6:00 AM
Fri, Nov 27
7:00 AM
Fri, Nov 27
8:00 AM
Fri, Nov 27
9:00 AM
Fri, Nov 27
10:00 AM
Fri, Nov 27
11:00 AM
Fri, Nov 27
12:00 PM
Fri, Nov 27
1:00 PM
Fri, Nov 27
2:00 PM
Fri, Nov 27
3:00 PM
Fri, Nov 27
4:00 PM
Fri, Nov 27
5:00 PM
Fri, Nov 27
6:00 PM
Fri, Nov 27
7:00 PM
Fri, Nov 27
8:00 PM
Fri, Nov 27
9:00 PM
Fri, Nov 27
10:00 PM
Fri, Nov 27
11:00 PM
Sat, Nov 28
12:00 AM
Sat, Nov 28
1:00 AM
Sat, Nov 28
2:00 AM
Sat, Nov 28
3:00 AM
Sat, Nov 28
4:00 AM
Sat, Nov 28
5:00 AM
Sat, Nov 28
6:00 AM
Sat, Nov 28
7:00 AM
Sat, Nov 28
8:00 AM
Sat, Nov 28
9:00 AM
Sat, Nov 28
10:00 AM
Sat, Nov 28
11:00 AM
Sat, Nov 28
12:00 PM
Sat, Nov 28
1:00 PM
Sat, Nov 28
2:00 PM
Sat, Nov 28
3:00 PM
Sat, Nov 28
4:00 PM
Sat, Nov 28
5:00 PM
Condition
Clear

Clouds

Clear

Clear

Clear

Clouds

Rain

Clouds

Clouds

Rain

Clouds

Clouds

Clouds

Clouds

Clear

Clear

Clear

Rain

Rain

Rain

Clear

Clear

Clouds

Clouds

Clouds

Clouds

Clouds

Clouds

Clear

Rain

Rain

Clouds

Clear

Rain

Rain

Clouds

Clouds

Clouds

Clear

Clear

Clear

Clear

Clear

Clouds

Clear

Clear

Clear

Clear
Temperature 77°F77°F77°F77°F77°F77°F77°F77°F77°F77°F77°F77°F77°F77°F77°F77°F77°F77°F77°F77°F77°F78°F78°F78°F77°F77°F77°F77°F77°F77°F77°F77°F77°F77°F77°F77°F77°F77°F77°F77°F77°F77°F77°F76°F76°F76°F76°F76°F
Feels Like 74°F74°F74°F75°F75°F75°F74°F74°F74°F74°F75°F75°F76°F76°F77°F77°F77°F77°F78°F78°F79°F79°F79°F78°F78°F78°F78°F78°F78°F79°F78°F77°F79°F79°F78°F78°F78°F78°F78°F78°F79°F80°F80°F81°F81°F81°F81°F81°F
Cloudiness 1%15%2%7%5%12%15%13%23%55%45%34%27%31%10%6%5%4%22%33%10%5%35%26%21%18%30%15%10%19%16%13%9%14%20%19%17%14%0%0%3%3%6%11%8%5%3%2%
Visibility 6 mi6 mi6 mi6 mi6 mi6 mi6 mi6 mi6 mi6 mi6 mi6 mi6 mi6 mi6 mi6 mi6 mi6 mi6 mi6 mi6 mi6 mi6 mi6 mi6 mi6 mi6 mi6 mi6 mi6 mi6 mi6 mi6 mi6 mi6 mi6 mi6 mi6 mi6 mi6 mi6 mi6 mi6 mi6 mi6 mi6 mi6 mi6 mi
Precipitation 0%0%0%0%0%0%24%8%44%48%36%20%8%8%4%4%4%32%32%36%12%8%8%11%11%4%19%23%19%36%39%19%36%32%44%36%32%28%16%12%20%19%19%19%27%27%27%20%
Humidity 69%70%69%70%73%73%73%74%75%74%74%73%71%70%70%71%73%74%74%72%68%67%68%69%71%71%72%73%76%77%75%74%74%74%73%70%67%65%66%67%69%68%68%70%72%72%73%74%
Dew Point 66°F67°F66°F67°F68°F68°F68°F68°F69°F68°F68°F68°F67°F67°F67°F67°F68°F68°F68°F68°F66°F66°F66°F67°F67°F67°F68°F68°F69°F69°F69°F68°F68°F68°F68°F66°F65°F65°F65°F66°F66°F66°F66°F66°F67°F67°F67°F68°F
Pressure 30.03"30.03"30.09"30.09"30.06"30.06"30.06"30.06"30.03"30.03"30.03"30.03"30.03"30.06"30.06"30.09"30.09"30.09"30.06"30.03"30.03"30"30"30"30"30.03"30.03"30.03"30.03"30"30"30"29.97"29.97"29.97"30"30"30"30.03"30.03"30.06"30.06"30.03"30"29.97"29.97"29.97"29.97"
Wind Speed 14.6 mph15.8 mph15.7 mph15 mph15.1 mph16.2 mph16.8 mph17 mph17.1 mph16.7 mph15.9 mph14.7 mph13.6 mph12.9 mph11.5 mph11.4 mph11.1 mph11 mph9.7 mph8.7 mph7.5 mph7.2 mph8.6 mph10 mph9.6 mph9.2 mph9.4 mph10.8 mph10.4 mph9.3 mph11 mph10.8 mph8.2 mph8.6 mph9.7 mph9 mph8.1 mph8.4 mph8.3 mph7.8 mph7.4 mph5.5 mph4 mph2.8 mph3.2 mph3.2 mph3.9 mph4.1 mph
Wind
Direction
86°
E
84°
E
69°
ENE
73°
ENE
75°
ENE
72°
ENE
73°
ENE
79°
E
77°
ENE
79°
E
86°
E
90°
E
95°
E
94°
E
88°
E
84°
E
79°
E
71°
ENE
68°
ENE
81°
E
96°
E
87°
E
81°
E
81°
E
77°
ENE
77°
ENE
77°
ENE
80°
E
64°
ENE
83°
E
112°
ESE
105°
ESE
97°
E
105°
ESE
101°
E
96°
E
91°
E
104°
ESE
101°
E
97°
E
102°
ESE
97°
E
77°
ENE
47°
NE
359°
N
345°
NNW
323°
NW
316°
NW

Daily Forecast

Date High Low Precip. Humidity
Today
Nov 26

Clouds
77 °F
77 °F
0%
69%
Friday
Nov 27

Rain
78 °F
77 °F
39%
72%
Saturday
Nov 28

Rain
77 °F
76 °F
44%
70%
Sunday
Nov 29

Rain
78 °F
76 °F
36%
68%
Monday
Nov 30

Rain
77 °F
71 °F
100%
78%
Tuesday
Dec 1

Clear
70 °F
63 °F
0%
66%
Wednesday
Dec 2

Clouds
73 °F
63 °F
0%
65%
Thursday
Dec 3

Rain
75 °F
73 °F
28%
68%
Friday
Dec 4

Clouds
74 °F
70 °F
0%
71%
Saturday
Dec 5

Clear
68 °F
63 °F
0%
63%
Sunday
Dec 6

Clear
70 °F
66 °F
0%
61%
Monday
Dec 7

Clear
74 °F
68 °F
0%
62%
Tuesday
Dec 8

Rain
77 °F
75 °F
57%
73%
Wednesday
Dec 9

Rain
75 °F
71 °F
84%
75%
Thursday
Dec 10

Clouds
72 °F
65 °F
0%
69%
Friday
Dec 11

Clear
70 °F
65 °F
0%
54%


Temperature 8-14 Day Outlook



Precipitation 8-14 Day Outlook




Quick Links
Marathon, Florida News
Marathon, Florida Photos
Marathon, Florida Videos




About Us
Contact Us
Site Map
Search Site
Advertise With Us
   
Marathon.CoastalTown.com
THE MARATHON, FLORIDA WEBSITE

Copyright 2020, Coastal Town
Privacy    |    Legal